Location: Poughquag
(41.6090°N, 73.6820°W)
Time: 03:36:51
(UTC-04:00)

Altair - Pass Details

Date: 03 June 2020
Orbit: 1501 x 1683 km, 47.2° (Epoch: 06 July)

Event Time Altitude Azimuth Distance (km) Brightness Sun altitude
Rises 03:39:51 0° 296° (WNW) 4,927 10.0 -15.3°
Reaches altitude 10° 03:43:01 10° 295° (WNW) 3,945 9.5 -14.9°
Maximum altitude 03:53:12 79° 211° (SSW) 1,705 7.6 -13.6°
Drops below altitude 10° 04:03:14 10° 127° (SE) 3,893 9.7 -12.3°
Sets 04:06:20 0° 126° (SE) 4,860 10.2 -11.9°
